Location: Northcutt
(34.7304°N, 84.4305°W)
Time: 17:59:31
(UTC+00:00)

SR - Pass Details

Date: 11 October 2022
Orbit: 577 x 874 km, 66.7° (Epoch: 05 December)

Event Time Altitude Azimuth Distance (km) Brightness Sun altitude
Rises 08:39:12 0° 345° (NNW) 3,274 - -37.5°
Reaches altitude 10° 08:42:09 10° 359° (N) 2,287 - -36.9°
Exits shadow 08:46:18 24° 52° (NE) 1,458 ? -36.1°
Maximum altitude 08:46:20 24° 52° (NE) 1,458 ? -36.1°
Drops below altitude 10° 08:50:15 10° 107° (ESE) 2,117 ? -35.4°
Sets 08:52:51 0° 121° (ESE) 2,975 ? -34.8°
